Regional Weather Roundup
Issued by NWS Newport/Morehead, NC

Current Version | Previous Version | Text Only | Print | Product List | Glossary Off
Versions: 1 2 3 4 5 6 7 8 9 10 11 12 13 14 15 16 17 18 19 20 21 22 23 24 25 26 27 28 29 30 31 32 33 34 35 36 37 38 39 40 41 42 43 44 45 46 47 48 49 50
000 ASUS42 KMHX 282222 RWRMHX WEATHER ROUNDUP FOR EASTERN NORTH CAROLINA NATIONAL WEATHER SERVICE NEWPORT/MOREHEAD CITY NC 500 PM EST SUN DEC 28 2014 NOTE: "FAIR" INDICATES FEW OR NO CLOUDS BELOW 12,000 FEET WITH NO SIGNIFICANT WEATHER AND/OR OBSTRUCTIONS TO VISIBILITY NCZ015>017-031-032-045>047-102-103-282300- NORTH COAST CITY SKY/WX TMP DP RH WIND PRES REMARKS EDENTON DRIZZLE 62 56 83 W6 30.04R ELIZABETH CITY CLOUDY 66 56 70 SW8 30.02R KITTY HAWK CLOUDY 63 56 78 SW8 30.02R MANTEO CLOUDY 61 55 82 W5 30.03S $$ NCZ045>047-081-094-103-104-282300- CENTRAL COAST CITY SKY/WX TMP DP RH WIND PRES REMARKS FRISCO MOCLDY 62 57 83 W5 30.04S SWANQUARTER N/A 61 N/A N/A SE3 30.00S $$ NCZ095-097-098-100-101-282300- SOUTHERN COAST CITY SKY/WX TMP DP RH WIND PRES REMARKS BEAUFORT PTCLDY 61 57 87 SW7 30.04R CEDAR ISLAND N/A 64 N/A N/A S7 30.06S JACKSONVILLE PTCLDY 68 59 73 S6 30.01R PINEY ISLAND MOCLDY 68 58 70 S7 30.03R WILMINGTON MOCLDY 69 61 75 SW6 30.03R $$ NCZ011>013-027>030-043-044-078>080-089-090>093-098-282300- COASTAL PLAIN CITY SKY/WX TMP DP RH WIND PRES REMARKS AHOSKIE RAIN 59 56 88 CALM 30.04R CLINTON CLOUDY 65 60 84 W3 30.03S ELIZABETHTOWN CLOUDY 67 59 75 CALM 30.03R GOLDSBORO MOCLDY 63 63 100 NW3 30.02R GREENVILLE DRIZZLE 63 59 88 CALM 30.06R HAVELOCK MOCLDY 68 59 73 SW6 30.04R KENANSVILLE CLOUDY 65 57 77 CALM 30.03S KINSTON CLOUDY 64 57 77 CALM 30.04R NEW BERN MOCLDY 68 57 68 N6 30.03R RICHLANDS MOCLDY 68 57 68 CALM 30.03R ROCKY MOUNT CLOUDY 60 58 92 CALM 30.04R WASHINGTON CLOUDY 64 56 78 CALM 30.04S WHITEVILLE CLOUDY 70 61 72 W3 30.02S $$ AMZ130-135-150-152-154-156-158-170-250-252-270-ANZ085-086-088-633-658-670-282300- MARINE OBSERVATIONS STATION/POSITION TIME TEMP WIND PRES WAVE SWELL AIR SEA DIR/SP/G HT/PER HT/PER (UTC) (F) (DEG/KT/KT) (MB) (FT/S) (FT/S) CHESAPEAKE LIGHT 2200 59 260/ 11/ 12 1016.4 64 E VA BEACH 2200 56 53 220/ 12/ 14 1015.3 3/14 2/14 DUCK 2200 59 49 230/ 7/ 9 1015.8 2 E DUCK 2200 49 N/A 2/13 2/13 10 NE DUCK 2200 51 N/A 2/14 2/14 OREGON INLET 2200 56 53 200/ 2/ 3 1016.9 13E OREGON INLT 2200 55 N/A 2/13 2/13 HATTERAS CG 2200 61 55 250/ 4/ 5 1017.5 DIAMOND BUOY 2200 70 1017.0 4/12 17 S OCRACOKE NOT AVBL CAPE LOOKOUT 2200 62 210/ 7/ 9 1016.9 BEAUFORT LAB 2200 61 55 220/ 5/ 9 1016.0 30 SE NEW RIVER 2200 63 60 210/ 8/ 10 1017.6 2/12 2/12 5 SE WRIGHTSVLE NOT AVBL 225 S CAPE HAT 2059 74 75 220/ 17/ 21 1020.1 6/14 3/14 41 SE CHARLESTON 2200 72 73 220/ 14/ 16 1017.6 3/14 2/14 $$

USA.gov is the U.S. government's official web portal to all federal, state and local government web resources and services.